• MPC Preparation (Info)

  • MPEC 2016-M08 : 2016 LV51

    The following Minor Planet Electronic Circular may be linked-to from your own Web pages, but must not otherwise be redistributed electronically.

    A form allowing access to any MPEC is at the bottom of this page.


    Read MPEC 2016-M07 Read MPEC 2016-M09


    M.P.E.C. 2016-M08                                Issued 2016 June 17, 17:20 UT
    
         The Minor Planet Electronic Circulars contain information on unusual
             minor planets and routine data on comets.  They are published
        on behalf of Division F of the International Astronomical Union by the
              Minor Planet Center, Smithsonian Astrophysical Observatory,
                              Cambridge, MA 02138, U.S.A.
    
                 Prepared using the Tamkin Foundation Computer Network
    
                                  MPC@CFA.HARVARD.EDU
                URL https://www.minorplanetcenter.net/    ISSN 1523-6714
    
                                       2016 LV51
    
    Observations:
         K16L51V* C2016 06 15.25743 17 03 05.05 -00 36 12.0          19.9 VqEM008G96
         K16L51V  C2016 06 15.26238 17 03 04.93 -00 34 30.8          19.8 VqEM008G96
         K16L51V  C2016 06 15.26850 17 03 04.69 -00 32 26.5          19.8 VqEM008G96
         K16L51V  C2016 06 15.27349 17 03 04.47 -00 30 45.8          19.9 VqEM008G96
         K16L51V  C2016 06 15.39755 17 02 59.99 +00 11 47.2          19.8 VqEM008G96
         K16L51V  C2016 06 15.39784 17 02 59.97 +00 11 52.8          20.0 VqEM008G96
         K16L51V  C2016 06 15.39791 17 02 59.97 +00 11 54.9          20.2 VqEM008I52
         K16L51V  C2016 06 15.39813 17 02 59.97 +00 11 59.1          20.4 VqEM008G96
         K16L51V  C2016 06 15.39832 17 02 59.96 +00 12 03.1          20.2 VqEM008I52
         K16L51V  C2016 06 15.39842 17 02 59.95 +00 12 05.3          19.8 VqEM008G96
         K16L51V  C2016 06 15.39874 17 02 59.95 +00 12 11.7                qEM008I52
         K16L51V  C2016 06 15.39915 17 02 59.94 +00 12 20.3          20.4 VqEM008I52
         K16L51V  C2016 06 16.17522 17 03 28.15 +04 54 17.3          21.5 RoEM008926
         K16L51V  C2016 06 16.17756 17 03 28.07 +04 55 11.8          20.9 RoEM008926
         K16L51V  C2016 06 16.25980 17 03 25.19 +05 26 42.5          20.4 RoEM008926
         K16L51V KC2016 06 16.27344 17 03 24.81 +05 31 56.0          19.8 RoEM008291
         K16L51V KC2016 06 16.27779 17 03 24.64 +05 33 37.3          20.1 RoEM008291
         K16L51V KC2016 06 16.28215 17 03 24.44 +05 35 17.7          20.0 RoEM008291
         K16L51V KC2016 06 16.44016 17 03 19.50 +06 36 42.0                oEM008291
         K16L51V KC2016 06 16.44111 17 03 19.49 +06 37 04.0                oEM008291
         K16L51V KC2016 06 16.44207 17 03 19.46 +06 37 27.3                oEM008291
         K16L51V  C2016 06 17.18934 17 03 52.60 +11 43 10.2          20.3 RoEM008926
         K16L51V  C2016 06 17.19248 17 03 52.57 +11 44 32.5          20.1 RoEM008926
         K16L51V  C2016 06 17.19560 17 03 52.46 +11 45 51.9          20.5 RoEM008926
         K16L51V  C2016 06 17.20353 17 03 52.23 +11 49 14.0          19.7 RoEM008926
         K16L51V  C2016 06 17.21295 17 03 51.92 +11 53 16.0          20.0 RoEM008926
         K16L51V  C2016 06 17.21608 17 03 51.82 +11 54 35.7          19.9 RoEM008926
         K16L51V  C2016 06 17.21921 17 03 51.73 +11 55 56.1          20.1 RoEM008926
         K16L51V  C2016 06 17.22440 17 03 51.53 +11 58 09.1          20.1 RoEM008926
         K16L51V  C2016 06 17.22752 17 03 51.42 +11 59 29.9          19.9 RoEM008926
         K16L51V  C2016 06 17.23599 17 03 51.02 +12 03 04.3          18.8 VqEM008G96
         K16L51V  C2016 06 17.23651 17 03 50.99 +12 03 16.9          19.1 VqEM008G96
         K16L51V  C2016 06 17.23703 17 03 51.06 +12 03 27.9                qEM008G96
         K16L51V  C2016 06 17.24367 17 03 50.79 +12 06 24.8          20.2 RoEM008926
         K16L51V  C2016 06 17.24681 17 03 50.64 +12 07 44.4          20.5 RoEM008926
         K16L51V  C2016 06 17.24994 17 03 50.54 +12 09 04.7          19.6 RoEM008926
         K16L51V  C2016 06 17.25968 17 03 50.16 +12 13 15.2          19.2 RoEM008926
         K16L51V  C2016 06 17.26280 17 03 50.02 +12 14 35.4          20.2 RoEM008926
         K16L51V KC2016 06 17.43487 17 03 44.74 +13 28 33.0          17.2 RoEM008291
         K16L51V KC2016 06 17.43626 17 03 44.74 +13 29 08.9          17.4 RoEM008291
         K16L51V KC2016 06 17.43770 17 03 44.74 +13 29 45.8          17.3 RoEM008291
    
    Observer details:
    291 LPL/Spacewatch II.  Observer T. H. Bressi.  1.8-m f/2.7 reflector + CCD.
    926 Tenagra II Observatory.  Observers M. Schwartz, P. R. Holvorcem.  Measurer
        M. Schwartz.  0.41-m f/3.75 astrograph + CCD, 0.81-m f/7 Ritchey-Chretien
        + CCD.
    G96 Mt. Lemmon Survey.  Observer J. A. Johnson.  Measurers E. J. Christensen,
        D. C. Fuls, A. R. Gibbs, A. D. Grauer, J. A. Johnson, R. A. Kowalski,
        S. M. Larson, G. J. Leonard, R. G. Matheny, R. L. Seaman, F. C. Shelly.
        1.5-m reflector + 10K CCD.
    I52 Steward Observatory, Mt. Lemmon Station.  Observer A. R. Gibbs.  Measurers
        E. J. Christensen, D. C. Fuls, A. R. Gibbs, A. D. Grauer, J. A. Johnson,
        R. A. Kowalski, S. M. Larson, G. J. Leonard, R. G. Matheny, R. L. Seaman,
        F. C. Shelly.  1.0-m reflector + CCD.
    
    Orbital elements:
    2016 LV51                                                Earth MOID = 0.0435 AU
    Epoch 2016 July 31.0 TT = JDT 2457600.5                 MPC
    M 352.84955              (2000.0)            P               Q
    n   0.61209685     Peri.   75.01694     +0.87654941     +0.43727694
    a   1.3737972      Node   258.70894     -0.48125671     +0.80258962
    e   0.3585551      Incl.   11.83485     +0.00728711     +0.40575703
    P   1.61           H   25.3           G   0.15           U   7
    Residuals in seconds of arc
    160615 G96  0.9-  0.6+    160616 926  0.5-  0.3-    160617 926  0.4+  0.8-
    160615 G96  0.2+  1.0+    160616 291  0.2+  0.6-    160617 926  0.4+  0.1-
    160615 G96  0.2+  0.5+    160616 291  0.3+  0.1+    160617 G96  0.2-  0.1-
    160615 G96  0.1-  0.6-    160616 291  0.0   0.4-    160617 G96  0.3-  0.8-
    160615 G96  0.1+  0.2-    160616 291  0.1+  1.4+    160617 G96 (1.0+  3.2-)
    160615 G96  0.1-  0.6-    160616 291  0.1+  1.1+    160617 926  0.0   0.3+
    160615 I52  0.0   0.0     160616 291 (0.2-  1.8+)   160617 926  0.4-  0.7-
    160615 G96  0.1+  0.3-    160617 926  0.7-  1.2-    160617 926  0.1-  0.8-
    160615 I52  0.0   0.3-    160617 926  0.2+  0.7+    160617 926  0.0   0.5-
    160615 G96  0.1-  0.2-    160617 926  0.0   0.2+    160617 926  0.3-  0.5-
    160615 I52  0.0   0.4-    160617 926  0.2+  0.9-    160617 291  0.4-  1.0+
    160615 I52  0.0   0.3-    160617 926  0.3+  0.3-    160617 291  0.2-  0.9+
    160616 926  0.1+  0.2-    160617 926  0.4+  0.9-    160617 291  0.1+  0.5+
    160616 926  0.1-  0.7+    160617 926  0.6+  0.7-
    
    Ephemeris:
    2016 LV51                a,e,i = 1.37, 0.36, 12                  q = 0.8812
    Date    TT    R. A. (2000) Decl.     Delta      r     Elong.  Phase     V
    2016 05 18    16 58 21.0 -42 28 03   0.2326  1.2214   151.7    23.1    23.7
    ...
    2016 06 02    17 01 41.9 -35 00 50   0.1260  1.1371   166.4    12.1    21.8
    ...
    2016 06 10    17 02 08.2 -21 36 42   0.07782 1.0930   177.0     2.8    20.2
    ...
    2016 06 16    17 03 18.1 +03 49 20   0.05092 1.0609   151.5    27.2    20.2
    2016 06 17    17 03 41.7 +10 24 20   0.04808 1.0557   144.9    33.6    20.2
    2016 06 18    17 04 10.9 +17 40 47   0.04597 1.0504   137.6    40.7    20.3
    ...
    2016 06 24    17 10 57.4 +63 06 46   0.05082 1.0200    92.6    84.5    21.8
    ...
    2016 07 02    04 00 09.8 +86 27 45   0.08652 0.9823    64.3   111.1    24.2
    ...
    2016 07 17    05 05 29.4 +68 42 36   0.1722  0.9242    53.4   117.9    26.0
    
    A. U. Tomatic                (C) Copyright 2016 MPC           M.P.E.C. 2016-M08
    

    Read MPEC 2016-M07 Read MPEC 2016-M09


    MPEC number:

    Enter an MPEC number in one of the following forms:

    • 1997-B01 (the full form)
    • J97B01 (the packed version of the full form)
    • B01 (the abbreviated form)